Location: Brede
(50.9167°N, 0.6000°E)
Time: 08:03:04
(UTC+00:00)

Altair - Pass Details

Date: 05 August 2021
Orbit: 1501 x 1682 km, 47.2° (Epoch: 18 September)

Event Time Altitude Azimuth Distance (km) Brightness Sun altitude
Exits shadow 00:23:21 34° 178° (S) 2,362 7.9 -22.0°
Maximum altitude 00:26:00 40° 146° (SE) 2,145 7.9 -21.9°
Drops below altitude 10° 00:34:21 10° 81° (E) 3,676 9.7 -21.8°
Sets 00:37:34 0° 74° (ENE) 4,648 10.4 -21.7°
